Time,TemperatureF,DewpointF,PressureIn,WindDirection,WindDirectionDegrees,WindSpeedMPH,WindSpeedGustMPH,Humidity,HourlyPrecipIn,Conditions,Clouds,dailyrainin,SoftwareType,DateUTC
2013-01-08 00:00:00,33.8,23.6,30.22,South,180,6.0,7.0,66,0.00,CLR,CLR,0.00,WeatherDisplay:10.37,2013-01-08 05:00:00,
2013-01-08 00:05:00,36.9,25.4,30.21,South,180,7.0,9.0,63,0.00,CLR,CLR,0.00,WeatherDisplay:10.37,2013-01-08 05:05:00,
2013-01-08 00:10:00,36.9,25.4,30.21,South,180,7.0,9.0,63,0.00,CLR,CLR,0.00,WeatherDisplay:10.37,2013-01-08 05:10:00,
2013-01-08 00:15:00,36.9,25.4,30.21,South,180,7.0,9.0,63,0.00,CLR,CLR,0.00,WeatherDisplay:10.37,2013-01-08 05:15:00,
2013-01-08 00:20:00,36.9,25.4,30.21,South,180,7.0,9.0,63,0.00,CLR,CLR,0.00,WeatherDisplay:10.37,2013-01-08 05:20:00,
2013-01-08 00:25:00,36.9,25.4,30.21,South,180,7.0,9.0,63,0.00,CLR,CLR,0.00,WeatherDisplay:10.37,2013-01-08 05:25:00,
2013-01-08 00:30:00,36.9,25.4,30.21,South,180,7.0,9.0,63,0.00,CLR,CLR,0.00,WeatherDisplay:10.37,2013-01-08 05:30:00,
2013-01-08 00:35:00,39.0,27.1,30.20,South,180,3.0,6.0,62,0.00,CLR,CLR,0.00,WeatherDisplay:10.37,2013-01-08 05:35:00,
2013-01-08 00:40:00,39.0,27.1,30.20,South,180,3.0,6.0,62,0.00,CLR,CLR,0.00,WeatherDisplay:10.37,2013-01-08 05:40:00,
2013-01-08 00:45:00,39.0,27.1,30.20,South,180,3.0,6.0,62,0.00,CLR,CLR,0.00,WeatherDisplay:10.37,2013-01-08 05:45:00,
2013-01-08 00:50:00,39.0,27.1,30.20,South,180,3.0,6.0,62,0.00,CLR,CLR,0.00,WeatherDisplay:10.37,2013-01-08 05:50:00,
2013-01-08 00:55:00,39.0,27.1,30.20,South,180,3.0,6.0,62,0.00,CLR,CLR,0.00,WeatherDisplay:10.37,2013-01-08 05:55:00,
2013-01-08 01:00:00,39.0,27.1,30.20,South,180,3.0,6.0,62,0.00,CLR,CLR,0.00,WeatherDisplay:10.37,2013-01-08 06:00:00,
2013-01-08 01:05:00,39.9,27.5,30.20,South,180,5.0,6.0,61,0.00,CLR,CLR,0.00,WeatherDisplay:10.37,2013-01-08 06:05:00,
2013-01-08 01:10:00,39.9,27.5,30.20,South,180,5.0,6.0,61,0.00,CLR,CLR,0.00,WeatherDisplay:10.37,2013-01-08 06:10:00,
2013-01-08 01:15:00,39.9,27.5,30.20,South,180,5.0,6.0,61,0.00,CLR,CLR,0.00,WeatherDisplay:10.37,2013-01-08 06:15:00,
2013-01-08 01:20:00,39.9,27.5,30.20,South,180,5.0,6.0,61,0.00,CLR,CLR,0.00,WeatherDisplay:10.37,2013-01-08 06:20:00,
2013-01-08 01:25:00,39.9,27.5,30.20,South,180,5.0,6.0,61,0.00,CLR,CLR,0.00,WeatherDisplay:10.37,2013-01-08 06:25:00,
2013-01-08 01:30:00,39.9,27.5,30.20,South,180,5.0,6.0,61,0.00,CLR,CLR,0.00,WeatherDisplay:10.37,2013-01-08 06:30:00,
2013-01-08 01:35:00,37.8,27.0,30.19,South,180,9.0,13.0,65,0.00,CLR,CLR,0.00,WeatherDisplay:10.37,2013-01-08 06:35:00,
2013-01-08 01:40:00,37.8,27.0,30.19,South,180,9.0,13.0,65,0.00,CLR,CLR,0.00,WeatherDisplay:10.37,2013-01-08 06:40:00,
2013-01-08 01:45:00,37.8,27.0,30.19,South,180,9.0,13.0,65,0.00,CLR,CLR,0.00,WeatherDisplay:10.37,2013-01-08 06:45:00,
2013-01-08 01:50:00,37.8,27.0,30.19,South,180,9.0,13.0,65,0.00,CLR,CLR,0.00,WeatherDisplay:10.37,2013-01-08 06:50:00,
2013-01-08 01:55:00,37.8,27.0,30.19,South,180,9.0,13.0,65,0.00,CLR,CLR,0.00,WeatherDisplay:10.37,2013-01-08 06:55:00,
2013-01-08 02:00:00,37.8,27.0,30.19,South,180,9.0,13.0,65,0.00,CLR,CLR,0.00,WeatherDisplay:10.37,2013-01-08 07:00:00,
2013-01-08 02:05:00,38.5,27.7,30.17,South,180,5.0,8.0,65,0.00,CLR,CLR,0.00,WeatherDisplay:10.37,2013-01-08 07:05:00,
2013-01-08 02:10:00,38.5,27.7,30.17,South,180,5.0,8.0,65,0.00,CLR,CLR,0.00,WeatherDisplay:10.37,2013-01-08 07:10:00,
2013-01-08 02:15:00,38.5,27.7,30.17,South,180,5.0,8.0,65,0.00,CLR,CLR,0.00,WeatherDisplay:10.37,2013-01-08 07:15:00,
2013-01-08 02:20:00,38.5,27.7,30.17,South,180,5.0,8.0,65,0.00,CLR,CLR,0.00,WeatherDisplay:10.37,2013-01-08 07:20:00,
2013-01-08 02:25:00,38.5,27.7,30.17,South,180,5.0,8.0,65,0.00,CLR,CLR,0.00,WeatherDisplay:10.37,2013-01-08 07:25:00,
2013-01-08 02:30:00,38.5,27.7,30.17,South,180,5.0,8.0,65,0.00,CLR,CLR,0.00,WeatherDisplay:10.37,2013-01-08 07:30:00,
2013-01-08 02:35:00,39.0,27.5,30.17,SSW,201,5.0,6.0,63,0.00,CLR,CLR,0.00,WeatherDisplay:10.37,2013-01-08 07:35:00,
2013-01-08 02:40:00,39.0,27.5,30.17,SW,225,5.0,6.0,63,0.00,CLR,CLR,0.00,WeatherDisplay:10.37,2013-01-08 07:40:00,
2013-01-08 02:45:00,39.0,27.5,30.17,SW,225,5.0,6.0,63,0.00,CLR,CLR,0.00,WeatherDisplay:10.37,2013-01-08 07:45:00,
2013-01-08 02:50:00,39.0,27.5,30.17,SW,225,5.0,6.0,63,0.00,CLR,CLR,0.00,WeatherDisplay:10.37,2013-01-08 07:50:00,
2013-01-08 02:55:00,39.0,27.5,30.17,SW,225,5.0,6.0,63,0.00,CLR,CLR,0.00,WeatherDisplay:10.37,2013-01-08 07:55:00,
2013-01-08 03:00:00,39.0,27.5,30.17,SW,225,5.0,6.0,63,0.00,CLR,CLR,0.00,WeatherDisplay:10.37,2013-01-08 08:00:00,
2013-01-08 03:05:00,41.9,27.3,30.16,SW,225,5.0,6.0,56,0.00,CLR,CLR,0.00,WeatherDisplay:10.37,2013-01-08 08:05:00,
2013-01-08 03:10:00,41.9,27.3,30.16,SW,225,5.0,6.0,56,0.00,CLR,CLR,0.00,WeatherDisplay:10.37,2013-01-08 08:10:00,
2013-01-08 03:15:00,41.9,27.3,30.16,SW,225,5.0,6.0,56,0.00,CLR,CLR,0.00,WeatherDisplay:10.37,2013-01-08 08:15:00,
2013-01-08 03:20:00,41.9,27.3,30.16,SW,225,5.0,6.0,56,0.00,CLR,CLR,0.00,WeatherDisplay:10.37,2013-01-08 08:20:00,
2013-01-08 03:25:00,41.9,27.3,30.16,SW,225,5.0,6.0,56,0.00,CLR,CLR,0.00,WeatherDisplay:10.37,2013-01-08 08:25:00,
2013-01-08 03:30:00,41.9,27.3,30.16,SW,225,5.0,6.0,56,0.00,CLR,CLR,0.00,WeatherDisplay:10.37,2013-01-08 08:30:00,
2013-01-08 03:35:00,43.0,27.0,30.15,SW,225,8.0,11.0,53,0.00,CLR,CLR,0.00,WeatherDisplay:10.37,2013-01-08 08:35:00,
2013-01-08 03:40:00,43.0,27.0,30.15,SW,225,8.0,11.0,53,0.00,CLR,CLR,0.00,WeatherDisplay:10.37,2013-01-08 08:40:00,
2013-01-08 03:45:00,43.0,27.0,30.15,SW,225,8.0,11.0,53,0.00,CLR,CLR,0.00,WeatherDisplay:10.37,2013-01-08 08:45:00,
2013-01-08 03:50:00,43.0,27.0,30.15,SW,225,8.0,11.0,53,0.00,CLR,CLR,0.00,WeatherDisplay:10.37,2013-01-08 08:50:00,
2013-01-08 03:55:00,43.0,27.0,30.15,SW,225,8.0,11.0,53,0.00,CLR,CLR,0.00,WeatherDisplay:10.37,2013-01-08 08:55:00,
2013-01-08 04:00:00,43.0,27.0,30.15,SW,225,8.0,11.0,53,0.00,CLR,CLR,0.00,WeatherDisplay:10.37,2013-01-08 09:00:00,
2013-01-08 04:05:00,42.1,26.6,30.14,SW,225,7.0,10.0,54,0.00,CLR,CLR,0.00,WeatherDisplay:10.37,2013-01-08 09:05:00,
2013-01-08 04:10:00,42.1,26.6,30.14,SW,225,7.0,10.0,54,0.00,CLR,CLR,0.00,WeatherDisplay:10.37,2013-01-08 09:10:00,
2013-01-08 04:15:00,42.1,26.6,30.14,SW,225,7.0,10.0,54,0.00,CLR,CLR,0.00,WeatherDisplay:10.37,2013-01-08 09:15:00,
2013-01-08 04:20:00,42.1,26.6,30.14,SW,225,7.0,10.0,54,0.00,CLR,CLR,0.00,WeatherDisplay:10.37,2013-01-08 09:20:00,
2013-01-08 04:25:00,42.1,26.6,30.14,SW,225,7.0,10.0,54,0.00,CLR,CLR,0.00,WeatherDisplay:10.37,2013-01-08 09:25:00,
2013-01-08 04:30:00,42.1,26.6,30.14,SW,225,7.0,10.0,54,0.00,CLR,CLR,0.00,WeatherDisplay:10.37,2013-01-08 09:30:00,
2013-01-08 04:35:00,39.7,27.0,30.13,SW,225,7.0,12.0,60,0.00,CLR,CLR,0.00,WeatherDisplay:10.37,2013-01-08 09:35:00,
2013-01-08 04:40:00,39.7,27.0,30.13,SW,225,7.0,12.0,60,0.00,CLR,CLR,0.00,WeatherDisplay:10.37,2013-01-08 09:40:00,
2013-01-08 04:45:00,39.7,27.0,30.13,SW,225,7.0,12.0,60,0.00,CLR,CLR,0.00,WeatherDisplay:10.37,2013-01-08 09:45:00,
2013-01-08 04:50:00,39.7,27.0,30.13,SW,225,7.0,12.0,60,0.00,CLR,CLR,0.00,WeatherDisplay:10.37,2013-01-08 09:50:00,
2013-01-08 04:55:00,39.7,27.0,30.13,SW,225,7.0,12.0,60,0.00,CLR,CLR,0.00,WeatherDisplay:10.37,2013-01-08 09:55:00,
2013-01-08 05:00:00,39.7,27.0,30.13,SW,225,7.0,12.0,60,0.00,CLR,CLR,0.00,WeatherDisplay:10.37,2013-01-08 10:00:00,
2013-01-08 05:05:00,38.8,27.7,30.12,SW,225,8.0,9.0,64,0.00,CLR,CLR,0.00,WeatherDisplay:10.37,2013-01-08 10:05:00,
2013-01-08 05:10:00,38.8,27.7,30.12,SW,225,8.0,9.0,64,0.00,CLR,CLR,0.00,WeatherDisplay:10.37,2013-01-08 10:10:00,
2013-01-08 05:15:00,38.8,27.7,30.12,SW,225,8.0,9.0,64,0.00,CLR,CLR,0.00,WeatherDisplay:10.37,2013-01-08 10:15:00,
2013-01-08 05:20:00,38.8,27.7,30.12,SW,225,8.0,9.0,64,0.00,CLR,CLR,0.00,WeatherDisplay:10.37,2013-01-08 10:20:00,
2013-01-08 05:25:00,38.8,27.7,30.12,SW,225,8.0,9.0,64,0.00,CLR,CLR,0.00,WeatherDisplay:10.37,2013-01-08 10:25:00,
2013-01-08 05:30:00,38.8,27.7,30.12,SW,225,8.0,9.0,64,0.00,CLR,CLR,0.00,WeatherDisplay:10.37,2013-01-08 10:30:00,
2013-01-08 05:35:00,36.7,24.9,30.11,SW,218,3.0,6.0,62,0.00,CLR,CLR,0.00,WeatherDisplay:10.37,2013-01-08 10:35:00,
2013-01-08 05:40:00,36.7,24.9,30.11,SSW,202,3.0,6.0,62,0.00,CLR,CLR,0.00,WeatherDisplay:10.37,2013-01-08 10:40:00,
2013-01-08 05:45:00,36.7,24.9,30.11,SSW,202,3.0,6.0,62,0.00,CLR,CLR,0.00,WeatherDisplay:10.37,2013-01-08 10:45:00,
2013-01-08 05:50:00,36.7,24.9,30.11,SSW,202,3.0,6.0,62,0.00,CLR,CLR,0.00,WeatherDisplay:10.37,2013-01-08 10:50:00,
2013-01-08 05:55:00,36.7,24.9,30.11,SSW,202,3.0,6.0,62,0.00,CLR,CLR,0.00,WeatherDisplay:10.37,2013-01-08 10:55:00,
2013-01-08 06:00:00,36.7,24.9,30.11,SSW,202,3.0,6.0,62,0.00,CLR,CLR,0.00,WeatherDisplay:10.37,2013-01-08 11:00:00,
2013-01-08 06:05:00,35.6,23.9,30.11,South,188,6.0,8.0,62,0.00,CLR,CLR,0.00,WeatherDisplay:10.37,2013-01-08 11:05:00,
2013-01-08 06:10:00,35.6,23.9,30.11,South,180,6.0,8.0,62,0.00,CLR,CLR,0.00,WeatherDisplay:10.37,2013-01-08 11:10:00,
2013-01-08 06:15:00,35.6,23.9,30.11,South,180,6.0,8.0,62,0.00,CLR,CLR,0.00,WeatherDisplay:10.37,2013-01-08 11:15:00,
2013-01-08 06:20:00,35.6,23.9,30.11,South,180,6.0,8.0,62,0.00,CLR,CLR,0.00,WeatherDisplay:10.37,2013-01-08 11:20:00,
2013-01-08 06:25:00,35.6,23.9,30.11,South,180,6.0,8.0,62,0.00,CLR,CLR,0.00,WeatherDisplay:10.37,2013-01-08 11:25:00,
2013-01-08 06:30:00,35.6,23.9,30.11,South,180,6.0,8.0,62,0.00,CLR,CLR,0.00,WeatherDisplay:10.37,2013-01-08 11:30:00,
2013-01-08 06:35:00,34.7,24.1,30.13,South,180,3.0,6.0,65,0.00,CLR,CLR,0.00,WeatherDisplay:10.37,2013-01-08 11:35:00,
2013-01-08 06:40:00,34.7,24.1,30.13,South,180,3.0,6.0,65,0.00,CLR,CLR,0.00,WeatherDisplay:10.37,2013-01-08 11:40:00,
2013-01-08 06:45:00,34.7,24.1,30.13,South,180,3.0,6.0,65,0.00,CLR,CLR,0.00,WeatherDisplay:10.37,2013-01-08 11:45:00,
2013-01-08 06:50:00,34.7,24.1,30.13,South,180,3.0,6.0,65,0.00,CLR,CLR,0.00,WeatherDisplay:10.37,2013-01-08 11:50:00,
2013-01-08 06:55:00,34.7,24.1,30.13,South,180,3.0,6.0,65,0.00,CLR,CLR,0.00,WeatherDisplay:10.37,2013-01-08 11:55:00,
2013-01-08 07:00:00,34.7,24.1,30.13,South,180,3.0,6.0,65,0.00,CLR,CLR,0.00,WeatherDisplay:10.37,2013-01-08 12:00:00,
2013-01-08 07:05:00,34.5,24.7,30.13,SSW,202,3.0,6.0,67,0.00,CLR,CLR,0.00,WeatherDisplay:10.37,2013-01-08 12:05:00,
2013-01-08 07:10:00,34.5,24.7,30.13,SW,225,3.0,6.0,67,0.00,CLR,CLR,0.00,WeatherDisplay:10.37,2013-01-08 12:10:00,
2013-01-08 07:15:00,34.5,24.7,30.13,SW,225,3.0,6.0,67,0.00,CLR,CLR,0.00,WeatherDisplay:10.37,2013-01-08 12:15:00,
2013-01-08 07:20:00,34.5,24.7,30.13,SW,225,3.0,6.0,67,0.00,CLR,CLR,0.00,WeatherDisplay:10.37,2013-01-08 12:20:00,
2013-01-08 07:25:00,34.5,24.7,30.13,SW,225,3.0,6.0,67,0.00,CLR,CLR,0.00,WeatherDisplay:10.37,2013-01-08 12:25:00,
2013-01-08 07:30:00,34.5,24.7,30.13,SW,225,3.0,6.0,67,0.00,CLR,CLR,0.00,WeatherDisplay:10.37,2013-01-08 12:30:00,
2013-01-08 07:35:00,34.7,25.2,30.14,South,191,9.0,14.0,68,0.00,CLR,CLR,0.00,WeatherDisplay:10.37,2013-01-08 12:35:00,
2013-01-08 07:40:00,34.7,25.2,30.14,South,180,9.0,14.0,68,0.00,CLR,CLR,0.00,WeatherDisplay:10.37,2013-01-08 12:40:00,
2013-01-08 07:45:00,34.7,25.2,30.14,South,180,9.0,14.0,68,0.00,CLR,CLR,0.00,WeatherDisplay:10.37,2013-01-08 12:45:00,
2013-01-08 07:50:00,34.7,25.2,30.14,South,180,9.0,14.0,68,0.00,CLR,CLR,0.00,WeatherDisplay:10.37,2013-01-08 12:50:00,
2013-01-08 07:55:00,34.7,25.2,30.14,South,180,9.0,14.0,68,0.00,CLR,CLR,0.00,WeatherDisplay:10.37,2013-01-08 12:55:00,
2013-01-08 08:00:00,34.7,25.2,30.14,South,180,9.0,14.0,68,0.00,CLR,CLR,0.00,WeatherDisplay:10.37,2013-01-08 13:00:00,
2013-01-08 08:05:00,35.1,25.2,30.16,SSE,162,7.0,10.0,67,0.00,CLR,CLR,0.00,WeatherDisplay:10.37,2013-01-08 13:05:00,
2013-01-08 08:10:00,35.1,25.2,30.16,SE,135,7.0,10.0,67,0.00,CLR,CLR,0.00,WeatherDisplay:10.37,2013-01-08 13:10:00,
2013-01-08 08:15:00,35.1,25.2,30.16,SE,135,7.0,10.0,67,0.00,CLR,CLR,0.00,WeatherDisplay:10.37,2013-01-08 13:15:00,
2013-01-08 08:20:00,35.1,25.2,30.16,SE,135,7.0,10.0,67,0.00,CLR,CLR,0.00,WeatherDisplay:10.37,2013-01-08 13:20:00,
2013-01-08 08:25:00,35.1,25.2,30.16,SE,135,7.0,10.0,67,0.00,CLR,CLR,0.00,WeatherDisplay:10.37,2013-01-08 13:25:00,
2013-01-08 08:30:00,35.1,25.2,30.16,SE,135,7.0,10.0,67,0.00,CLR,CLR,0.00,WeatherDisplay:10.37,2013-01-08 13:30:00,
2013-01-08 08:35:00,35.4,25.2,30.16,South,175,6.0,8.0,66,0.00,CLR,CLR,0.00,WeatherDisplay:10.37,2013-01-08 13:35:00,
2013-01-08 08:40:00,35.4,25.2,30.16,SW,225,6.0,8.0,66,0.00,CLR,CLR,0.00,WeatherDisplay:10.37,2013-01-08 13:40:00,
2013-01-08 08:45:00,35.4,25.2,30.16,SW,225,6.0,8.0,66,0.00,CLR,CLR,0.00,WeatherDisplay:10.37,2013-01-08 13:45:00,
2013-01-08 08:50:00,35.4,25.2,30.16,SW,225,6.0,8.0,66,0.00,CLR,CLR,0.00,WeatherDisplay:10.37,2013-01-08 13:50:00,
2013-01-08 08:55:00,35.4,25.2,30.16,SW,225,6.0,8.0,66,0.00,CLR,CLR,0.00,WeatherDisplay:10.37,2013-01-08 13:55:00,
2013-01-08 09:00:00,35.4,25.2,30.16,SW,225,6.0,8.0,66,0.00,CLR,CLR,0.00,WeatherDisplay:10.37,2013-01-08 14:00:00,
2013-01-08 09:05:00,36.1,25.1,30.15,SW,225,7.0,9.0,64,0.00,CLR,CLR,0.00,WeatherDisplay:10.37,2013-01-08 14:05:00,
2013-01-08 09:10:00,36.1,25.1,30.15,SW,225,7.0,9.0,64,0.00,CLR,CLR,0.00,WeatherDisplay:10.37,2013-01-08 14:10:00,
2013-01-08 09:15:00,36.1,25.1,30.15,SW,225,7.0,9.0,64,0.00,CLR,CLR,0.00,WeatherDisplay:10.37,2013-01-08 14:15:00,
2013-01-08 09:20:00,36.1,25.1,30.15,SW,225,7.0,9.0,64,0.00,CLR,CLR,0.00,WeatherDisplay:10.37,2013-01-08 14:20:00,
2013-01-08 09:25:00,36.1,25.1,30.15,SW,225,7.0,9.0,64,0.00,CLR,CLR,0.00,WeatherDisplay:10.37,2013-01-08 14:25:00,
2013-01-08 09:31:00,36.9,25.4,30.13,SW,225,9.0,15.0,63,0.00,CLR,CLR,0.00,WeatherDisplay:10.37,2013-01-08 14:31:00,
2013-01-08 09:32:00,36.9,25.4,30.13,SW,225,9.0,0.0,63,0.00,CLR,CLR,0.00,WeatherDisplay:10.37,2013-01-08 14:32:00,
2013-01-08 09:33:00,36.9,25.4,30.13,SW,225,9.0,0.0,63,0.00,CLR,CLR,0.00,WeatherDisplay:10.37,2013-01-08 14:33:00,
2013-01-08 09:34:00,36.9,25.4,30.13,SW,225,9.0,0.0,63,0.00,CLR,CLR,0.00,WeatherDisplay:10.37,2013-01-08 14:34:00,
2013-01-08 09:35:00,36.9,25.4,30.13,SW,225,9.0,0.0,63,0.00,CLR,CLR,0.00,WeatherDisplay:10.37,2013-01-08 14:35:00,
2013-01-08 21:32:00,36.1,25.1,30.15,SW,225,6.4,9.2,64,0.00,CLR,,0.00,WeatherDisplay:10.37,2013-01-09 02:32:00,
2013-01-08 21:33:00,36.1,25.1,30.15,SW,225,6.4,9.2,64,0.00,CLR,,0.00,WeatherDisplay:10.37,2013-01-09 02:33:00,
2013-01-08 21:38:00,36.9,25.4,30.13,SW,225,8.1,11.5,63,0.00,CLR,,0.00,WeatherDisplay:10.37,2013-01-09 02:38:00,
2013-01-08 21:41:00,40.6,33.3,30.18,South,180,8.0,17.0,75,0.00,CLR,CLR,0.00,WeatherDisplay:10.37,2013-01-09 02:41:00,
2013-01-08 21:42:00,40.6,33.3,30.18,South,180,8.0,0.0,75,0.00,CLR,CLR,0.00,WeatherDisplay:10.37,2013-01-09 02:42:00,
2013-01-08 21:43:00,36.9,25.4,30.12,SW,225,10.4,16.1,63,0.00,CLR,,0.00,WeatherDisplay:10.37,2013-01-09 02:43:00,
2013-01-08 21:44:00,40.6,33.3,30.18,South,180,8.0,0.0,75,0.00,CLR,CLR,0.00,WeatherDisplay:10.37,2013-01-09 02:44:00,
2013-01-08 21:45:00,40.6,33.3,30.18,South,180,8.0,0.0,75,0.00,CLR,CLR,0.00,WeatherDisplay:10.37,2013-01-09 02:45:00,
2013-01-08 21:48:00,36.9,25.4,30.13,SW,225,7.4,11.5,63,0.00,CLR,,0.00,WeatherDisplay:10.37,2013-01-09 02:48:00,
2013-01-08 21:53:00,36.9,25.4,30.12,SW,225,12.1,15.0,63,0.00,CLR,,0.00,WeatherDisplay:10.37,2013-01-09 02:53:00,
2013-01-08 21:58:00,36.7,25.3,30.12,SW,225,6.4,12.7,63,0.00,CLR,,0.00,WeatherDisplay:10.37,2013-01-09 02:58:00,
2013-01-08 22:03:00,36.5,25.1,30.12,SW,225,13.8,15.0,63,0.00,CLR,,0.00,WeatherDisplay:10.37,2013-01-09 03:03:00,
2013-01-08 22:08:00,36.5,24.7,30.12,SW,225,9.7,15.4,62,0.00,CLR,,0.00,WeatherDisplay:10.37,2013-01-09 03:08:00,
2013-01-08 22:13:00,36.5,24.7,30.11,SW,225,12.1,16.1,62,0.00,CLR,,0.00,WeatherDisplay:10.37,2013-01-09 03:13:00,
2013-01-08 22:18:00,36.5,24.7,30.11,SW,225,12.1,19.6,62,0.00,CLR,,0.00,WeatherDisplay:10.37,2013-01-09 03:18:00,
2013-01-08 22:23:00,36.5,24.7,30.11,SW,225,11.4,20.7,62,0.00,CLR,,0.00,WeatherDisplay:10.37,2013-01-09 03:23:00,
2013-01-08 22:28:00,36.7,24.9,30.11,SW,225,8.8,18.4,62,0.00,CLR,,0.00,WeatherDisplay:10.37,2013-01-09 03:28:00,
2013-01-08 22:33:00,36.7,24.9,30.12,SW,225,13.8,17.3,62,0.00,CLR,,0.00,WeatherDisplay:10.37,2013-01-09 03:33:00,
2013-01-08 22:38:00,36.7,24.9,30.12,SW,225,13.8,19.6,62,0.00,CLR,,0.00,WeatherDisplay:10.37,2013-01-09 03:38:00,
2013-01-08 22:43:00,36.9,25.0,30.12,SW,225,12.1,19.6,62,0.00,CLR,,0.00,WeatherDisplay:10.37,2013-01-09 03:43:00,
2013-01-08 22:48:00,36.9,25.0,30.12,SW,225,12.1,20.7,62,0.00,CLR,,0.00,WeatherDisplay:10.37,2013-01-09 03:48:00,
2013-01-08 22:53:00,36.9,25.0,30.12,SW,225,9.7,16.1,62,0.00,CLR,,0.00,WeatherDisplay:10.37,2013-01-09 03:53:00,
2013-01-08 22:58:00,37.0,25.2,30.12,SW,225,12.1,18.4,62,0.00,CLR,,0.00,WeatherDisplay:10.37,2013-01-09 03:58:00,
2013-01-08 23:03:00,37.0,25.2,30.12,SW,225,10.4,15.0,62,0.00,CLR,,0.00,WeatherDisplay:10.37,2013-01-09 04:03:00,
2013-01-08 23:08:00,36.9,25.0,30.12,SW,225,8.8,17.3,62,0.00,CLR,,0.00,WeatherDisplay:10.37,2013-01-09 04:08:00,
2013-01-08 23:13:00,36.9,25.0,30.12,SW,225,11.4,15.0,62,0.00,CLR,,0.00,WeatherDisplay:10.37,2013-01-09 04:13:00,
2013-01-08 23:18:00,37.0,25.6,30.12,SW,225,10.4,15.0,63,0.00,CLR,,0.00,WeatherDisplay:10.37,2013-01-09 04:18:00,
2013-01-08 23:23:00,37.0,25.6,30.13,SW,225,7.4,13.8,63,0.00,CLR,,0.00,WeatherDisplay:10.37,2013-01-09 04:23:00,
2013-01-08 23:28:00,37.0,25.6,30.13,SW,225,9.7,13.8,63,0.00,CLR,,0.00,WeatherDisplay:10.37,2013-01-09 04:28:00,
2013-01-08 23:33:00,37.2,26.2,30.14,SW,225,9.7,17.3,64,0.00,CLR,,0.00,WeatherDisplay:10.37,2013-01-09 04:33:00,
2013-01-08 23:38:00,37.6,28.0,30.14,SW,225,10.4,15.0,68,0.00,CLR,,0.00,WeatherDisplay:10.37,2013-01-09 04:38:00,
2013-01-08 23:43:00,37.8,28.1,30.14,SW,225,10.4,15.0,68,0.00,CLR,,0.00,WeatherDisplay:10.37,2013-01-09 04:43:00,
2013-01-08 23:48:00,37.8,28.1,30.14,SW,225,10.4,15.0,68,0.00,CLR,,0.00,WeatherDisplay:10.37,2013-01-09 04:48:00,
2013-01-08 23:53:00,37.9,28.3,30.14,SW,225,8.8,12.7,68,0.00,CLR,,0.00,WeatherDisplay:10.37,2013-01-09 04:53:00,
2013-01-08 23:58:00,37.8,28.1,30.14,SW,225,12.1,15.0,68,0.00,CLR,,0.00,WeatherDisplay:10.37,2013-01-09 04:58:00,